Weather in Marazlievka

Ukraine / Odesa District     46°05′54″N   30°02′57″E
temp.,
°C
wind,
m/s
gust,
m/s
humid.,
%
clouds,
%
prec.,
mm/h
press.,
hPa
HPBL,
m
29 july, thu
thu2900:00+24sw38581 0.0 1014160
03:00+24e226526 0.0 101327
06:00+23sw22785 0.0 101339
09:00+28wsw34533 0.0 1013460
12:00+34wsw34310 0.0 10111430
15:00+33s76400 0.0 1011773
18:00+30s79522 0.0 1009286
21:00+23nnw11167299 1.6 1011367
30 july, fri
fri3000:00+25sw56521 0.0 101085
03:00+22nnw35720 0.0 1011108
06:00+21nnw35770 0.0 1012114
09:00+25nnw46630 0.0 1012558
12:00+30nnw66460 0.0 10121425
15:00+32nnw66360 0.0 10112107
18:00+32nnw66320 0.0 10101992
21:00+26nnw344756 0.0 101150
31 july, sat
sat3100:00+24n35523 0.0 101173
03:00+23nne34570 0.0 101161
06:00+22ne23650 0.0 101131
09:00+28ene33450 0.0 1012519
12:00+31e33340 0.0 10121776
15:00+33se55320 0.0 10112011
18:00+30se54350 0.0 1011796
21:00+24ssw33610 0.0 101136
1 august, sun
sun100:00+23wsw33595 0.0 101125
03:00+22w33595 0.0 101144
06:00+22e11625 0.0 101111
09:00+28s234227 0.0 1011412
12:00+32s54335 0.0 10111081
15:00+33s54310 0.0 10111125
18:00+30sse66400 0.0 1011598
21:00+25s49640 0.0 1011208
2 august, mon
mon200:00+24ssw36692 0.0 1011111
03:00+23sw36690 0.0 1010104
06:00+22s35730 0.0 101075
09:00+29ssw57495 0.0 1010546
12:00+31s77380 0.0 1009831
15:00+31s89380 0.0 1008659
18:00+29s912481 0.0 1007478
21:00+25e24651 0.3 1010107